Regional Weather Roundup
Issued by NWS

Home | Current Version | Previous Version | Graphics & Text | Print | Product List | Glossary On
Versions: 1 2 3 4 5 6 7 8 9 10 11 12 13 14 15 16 17 18 19 20 21 22 23 24 25 26 27 28 29 30 31 32 33 34 35 36 37 38 39 40 41 42 43 44 45 46 47 48 49 50
000
ASUS43 KLSX 280859
RWRMO

WEATHER SUMMARY FOR MISSOURI
NATIONAL WEATHER SERVICE SPRINGFIELD MO
300 AM CST SAT FEB 28 2015

NOTE: "FAIR" INDICATES FEW OR NO CLOUDS BELOW 12,000 FEET WITH NO
       SIGNIFICANT WEATHER AND/OR OBSTRUCTIONS TO VISIBILITY.
       CURRENT SKY AND/OR WEATHER CONDITIONS ARE NOT AVAILABLE FOR
       CHILLICOTHE AND FARMINGTON.

MOZ001>031-035>038-043-044-053-054-281000-
...NORTHERN AND WESTERN MISSOURI...

CITY           SKY/WX    TMP DP  RH WIND       PRES   REMARKS
KANSAS CTY INT PTCLDY    14   7  73 E7        30.51F WCI   4
KANSAS C DTWN  CLOUDY    17   7  64 E8        30.53F WCI   7
LEE`S SUMMIT   CLOUDY    16   8  71 E7        30.51F WCI   6
ST JOSEPH      CLOUDY    16   6  65 SE5       30.54F WCI   9
CHILLICOTHE      N/A     14   5  67 E6        30.58F WCI   5
KIRKSVILLE     CLOUDY    10   2  69 E7        30.57F WCI  -1

$$
MOZ066>068-077>081-088>096-101>105-281000-
...SOUTHWEST MISSOURI...

CITY           SKY/WX    TMP DP  RH WIND       PRES   REMARKS
SPRINGFIELD    CLOUDY    20   9  62 E9        30.47F WCI   9
JOPLIN         MOCLDY    19  12  74 E6        30.49F WCI  11

$$
MOZ032>034-039>042-045>050-055>058-069>072-281000-
...CENTRAL MISSOURI...

CITY           SKY/WX    TMP DP  RH WIND       PRES   REMARKS
COLUMBIA       FLURRIES  16   7  67 E9        30.57S WCI   4
JEFFERSON CITY CLOUDY    18   8  65 E9        30.60S WCI   7
ROLLA          CLOUDY    18   5  57 SE10      30.53S WCI   6
SEDALIA        CLOUDY    18   6  59 E8        30.55F WCI   8
OSAGE BEACH    CLOUDY    19   7  58 E5        30.53F WCI  13

$$
MOZ051-052-059>065-281000-
...EAST CENTRAL MISSOURI...

CITY           SKY/WX    TMP DP  RH WIND       PRES   REMARKS
ST LOUIS INTL  CLOUDY    15   2  56 E8        30.63F WCI   4
SPIRIT OF STL  CLOUDY    16   3  56 E6        30.62F WCI   7
ST CHARLES     CLOUDY    13   3  64 E8        30.64F WCI   2

$$
MOZ072>076-082>087-097>100-106>115-281000-
...SOUTH CENTRAL AND SOUTHEAST MISSOURI...

CITY           SKY/WX    TMP DP  RH WIND       PRES   REMARKS
CAPE GIRARDEAU CLOUDY    20  11  68 NE13      30.62R WCI   7
FARMINGTON     CLOUDY    18  10  73 NE7       30.61R WCI   8
POPLAR BLUFF   CLOUDY    21  10  62 NE10      30.60R WCI  10
WEST PLAINS    CLOUDY    19   7  59 E7        30.51F WCI  10

$$



USA.gov is the U.S. government's official web portal to all federal, state and local government web resources and services.